Miscellaneous Local Product
Issued by NWS Hastings, NE

Home | Current Version | Previous Version | Graphics & Text | Print | Product List | Glossary On
Versions: 1 2 3 4 5 6 7 8 9 10 11 12 13 14 15 16 17 18 19 20 21 22 23 24 25 26 27 28 29 30 31 32 33 34 35 36 37 38 39 40 41 42 43 44 45 46 47 48 49 50
000
AXUS43 KGID 052302
MISGRI

GID CWA HOURLY WEATHER ROUNDUP
NATIONAL WEATHER SERVICE HASTINGS NE
600 PM CDT SUN JUL 05 2015

NOTE: "FAIR" INDICATES FEW OR NO CLOUDS BELOW 12,000 FEET WITH NO
SIGNIFICANT WEATHER AND/OR OBSTRUCTIONS TO VISIBILITY.

...SOUTH CENTRAL NEBRASKA...

CITY           SKY/WX    TMP DP  RH WIND       PRES   REMARKS
GRAND ISLAND   SUNNY     96  70  42 S14       29.75F HX 102
HASTINGS       SUNNY     96  68  39 S15G24    29.74F HX 101
KEARNEY        SUNNY     97  70  41 S8        29.73S HX 103
ORD            SUNNY     94  70  45 SE12      29.73F HX 100
YORK           SUNNY     91  73  55 S14       29.77F HX 100
AURORA         SUNNY     93  73  51 SE14      29.76S HX 102
LEXINGTON      PTSUNNY   98  65  34 SE9       29.72F HX 100
HOLDREGE       MOSUNNY   99  60  27 S12G17    29.74F HX  99
HEBRON         SUNNY     95  63  34 S14G24    29.77F HX  96

...NEBRASKA PANHANDLE...

CITY           SKY/WX    TMP DP  RH WIND       PRES   REMARKS
CHADRON        PTSUNNY   77  65  66 N17G29    29.87R
ALLIANCE       CLOUDY    82  65  56 N13       29.83F
SCOTTSBLUFF    TSTM      64  61  90 S13G29    30.00R VSB 3/4
SIDNEY         CLOUDY    83  58  42 NW18G25   29.87R

...WESTERN AND NORTH CENTRAL NEBRASKA...

CITY           SKY/WX    TMP DP  RH WIND       PRES   REMARKS
VALENTINE      PTSUNNY   92  66  42 S9        29.75S HX  94
AINSWORTH      MOSUNNY   90  68  48 S9        29.77R HX  94
ONEILL         PTSUNNY   91  72  54 S10G17    29.78S HX  98
BROKEN BOW     MOSUNNY   95  69  42 S15G23    29.74F HX 100
IMPERIAL       PTSUNNY  101  51  18 S9        29.74F HX  98
NORTH PLATTE   PTSUNNY   95  67  39 E9        29.73F HX  99
MCCOOK         PTSUNNY   95  56  26 SE22G29   29.70F HX  93

...EASTERN NEBRASKA...

CITY           SKY/WX    TMP DP  RH WIND       PRES   REMARKS
NORFOLK        SUNNY     89  76  65 SE13      29.78S HX 100
SO SIOUX CITY  MOSUNNY   88  73  61 S16G24    29.80S HX  95
TEKAMAH        MOSUNNY   91  74  57 SE18G25   29.79F HX 100
COLUMBUS       SUNNY     90  75  62 SE13      29.79F HX 100
ALBION         MOSUNNY   89  73  59 S14       29.77F HX  97
OMAHA EPPLEY   PTSUNNY   90  74  59 S22       29.81S HX  99
OFFUTT AFB     SUNNY     90  75  61 S16       29.81S HX 100
MILLARD        SUNNY     90  76  64 SE14      29.81F HX 102
LINCOLN        MOSUNNY   91  74  57 S18       29.79F HX 100
NEBRASKA CITY  SUNNY     90  65  44 S20G25    29.84S HX  92
BEATRICE       SUNNY     92  74  54 SE20G25   29.80F HX 102
FALLS CITY     MOSUNNY   91  70  49 S17       29.84F HX  96

...NORTHERN KANSAS...

CITY           SKY/WX    TMP DP  RH WIND       PRES   REMARKS
GOODLAND       PTSUNNY   96  51  21 S17       29.79S HX  93
HILL CITY      MOSUNNY  102  59  24 S20G31    29.74F HX 102
NORTON         CLEAR     95  52  23 S16G23    29.73S HX  92
PHILLIPSBURG   MOSUNNY  104  57  21 S20G30    29.72F HX 103
SMITH CENTER   SUNNY    100  59  25 S24G30    29.75S HX 100
HAYS           SUNNY     99  55  23 S21G29    29.79S HX  97
RUSSELL        LGT RAIN  98  60  28 S21G33    29.77F HX  98
CONCORDIA      SUNNY     96  64  34 S20G29    29.78F HX  98
SALINA         SUNNY    101  61  26 S21G31    29.79F HX 102
TOPEKA         MOSUNNY   92  72  51 SE15      29.86F HX  99



USA.gov is the U.S. government's official web portal to all federal, state and local government web resources and services.